NKS615 KSAV-KMCO

Flight info

Callsign NKS615
Flight time 0h 36m
Altitude 26000
Route STARY LPERD OMN BITHO7
Aircraft A321/M-SDE3FGHIRWY/LB1

Departure

Time 2026-05-06 18:30
Airport Savannah Hilton Head International Airport (KSAV)

Arrival

Time 2026-05-06 19:06
Airport Orlando International Airport (KMCO)
Time Latitude Longitude Altitude Speed Heading
2026-05-06 18:07 32.13608 -81.20854 54 ft 0 kts 181°
2026-05-06 18:20 32.13609 -81.20854 81 ft 0 kts 181°
2026-05-06 18:23 32.13630 -81.20855 52 ft 4 kts 172°
2026-05-06 18:24 32.13655 -81.20862 50 ft 4 kts 151°
2026-05-06 18:24 32.13673 -81.20881 52 ft 4 kts 103°
2026-05-06 18:24 32.13675 -81.20889 51 ft 0 kts 91°
2026-05-06 18:26 32.13675 -81.20885 54 ft 3 kts 91°
2026-05-06 18:26 32.13674 -81.20822 54 ft 10 kts 91°
2026-05-06 18:26 32.13672 -81.20736 54 ft 11 kts 91°
2026-05-06 18:27 32.13672 -81.20640 54 ft 12 kts 90°
2026-05-06 18:27 32.13672 -81.20537 54 ft 13 kts 90°
2026-05-06 18:27 32.13671 -81.20439 54 ft 4 kts 90°
2026-05-06 18:27 32.13670 -81.20397 54 ft 6 kts 90°
2026-05-06 18:28 32.13647 -81.20342 54 ft 10 kts 149°
2026-05-06 18:28 32.13581 -81.20320 54 ft 10 kts 142°
2026-05-06 18:28 32.13570 -81.20234 53 ft 12 kts 89°
2026-05-06 18:28 32.13571 -81.20131 53 ft 13 kts 89°
2026-05-06 18:29 32.13564 -81.20036 49 ft 10 kts 119°
2026-05-06 18:29 32.13495 -81.20012 50 ft 13 kts 179°
2026-05-06 18:29 32.13230 -81.20013 47 ft 74 kts 180°
2026-05-06 18:29 32.12482 -81.20005 43 ft 138 kts 179°
2026-05-06 18:30 32.11394 -81.20008 313 ft 162 kts 186°
2026-05-06 18:30 32.10278 -81.19994 1043 ft 160 kts 183°
2026-05-06 18:30 32.09169 -81.19979 1614 ft 162 kts 182°
2026-05-06 18:30 32.07958 -81.19932 1928 ft 186 kts 180°
2026-05-06 18:31 32.06584 -81.19850 2272 ft 208 kts 179°
2026-05-06 18:31 32.05063 -81.19754 2431 ft 231 kts 179°
2026-05-06 18:31 32.03415 -81.19648 2827 ft 241 kts 179°
2026-05-06 18:31 32.01748 -81.19539 3567 ft 238 kts 180°
2026-05-06 18:32 32.00055 -81.19431 4088 ft 254 kts 180°
2026-05-06 18:32 31.98242 -81.19322 4436 ft 266 kts 181°
2026-05-06 18:32 31.96376 -81.19207 5146 ft 270 kts 181°
2026-05-06 18:32 31.94511 -81.19089 5885 ft 274 kts 181°
2026-05-06 18:33 31.92567 -81.18966 6584 ft 279 kts 181°
2026-05-06 18:33 31.90613 -81.18842 7253 ft 283 kts 181°
2026-05-06 18:33 31.88635 -81.18717 7954 ft 286 kts 181°
2026-05-06 18:33 31.86641 -81.18593 8685 ft 288 kts 181°
2026-05-06 18:34 31.84630 -81.18466 9391 ft 291 kts 181°
2026-05-06 18:34 31.82602 -81.18337 10053 ft 294 kts 181°
2026-05-06 18:34 31.80517 -81.18211 10240 ft 315 kts 181°
2026-05-06 18:34 31.78255 -81.18077 10356 ft 336 kts 181°
2026-05-06 18:35 31.75857 -81.17931 10600 ft 351 kts 180°
2026-05-06 18:35 31.73394 -81.17772 11108 ft 357 kts 180°
2026-05-06 18:35 31.70898 -81.17607 11659 ft 361 kts 180°
2026-05-06 18:35 31.68373 -81.17441 12229 ft 365 kts 181°
2026-05-06 18:36 31.65823 -81.17279 12792 ft 369 kts 181°
2026-05-06 18:36 31.63245 -81.17118 13356 ft 373 kts 181°
2026-05-06 18:36 31.60637 -81.16958 13908 ft 377 kts 181°
2026-05-06 18:36 31.58004 -81.16796 14405 ft 381 kts 182°
2026-05-06 18:37 31.55342 -81.16635 14907 ft 385 kts 182°
2026-05-06 18:37 31.53566 -81.16528 15246 ft 388 kts 182°
2026-05-06 18:37 31.49931 -81.16304 15907 ft 394 kts 182°
2026-05-06 18:37 31.47181 -81.16130 16378 ft 398 kts 182°
2026-05-06 18:38 31.44399 -81.15954 16851 ft 403 kts 182°
2026-05-06 18:38 31.41582 -81.15777 17345 ft 407 kts 182°
2026-05-06 18:38 31.38744 -81.15601 17841 ft 411 kts 183°
2026-05-06 18:38 31.35873 -81.15426 18331 ft 415 kts 183°
2026-05-06 18:39 31.32975 -81.15249 18751 ft 419 kts 183°
2026-05-06 18:39 31.30050 -81.15069 19196 ft 422 kts 183°
2026-05-06 18:39 31.27107 -81.14888 19646 ft 425 kts 183°
2026-05-06 18:40 31.21161 -81.14567 20532 ft 428 kts 187°
2026-05-06 18:40 31.18213 -81.14879 20973 ft 424 kts 197°
2026-05-06 18:40 31.15315 -81.15539 21410 ft 425 kts 198°
2026-05-06 18:40 31.12411 -81.16211 21838 ft 428 kts 198°
2026-05-06 18:41 31.09480 -81.16887 22258 ft 430 kts 198°
2026-05-06 18:41 31.06536 -81.17565 22669 ft 433 kts 198°
2026-05-06 18:41 31.03572 -81.18248 23067 ft 436 kts 198°
2026-05-06 18:41 31.00588 -81.18935 23464 ft 438 kts 198°
2026-05-06 18:42 30.97583 -81.19623 23821 ft 441 kts 198°
2026-05-06 18:42 30.94566 -81.20311 24158 ft 443 kts 198°
2026-05-06 18:42 30.91533 -81.21003 24488 ft 445 kts 197°
2026-05-06 18:42 30.88487 -81.21696 24825 ft 447 kts 198°
2026-05-06 18:43 30.85427 -81.22392 25159 ft 449 kts 198°
2026-05-06 18:43 30.82351 -81.23092 25485 ft 451 kts 198°
2026-05-06 18:43 30.79266 -81.23794 25813 ft 453 kts 198°
2026-05-06 18:43 30.76164 -81.24498 26036 ft 455 kts 198°
2026-05-06 18:44 30.73065 -81.25195 26090 ft 451 kts 198°
2026-05-06 18:44 30.69991 -81.25888 26095 ft 449 kts 198°
2026-05-06 18:44 30.66929 -81.26582 26100 ft 451 kts 198°
2026-05-06 18:44 30.63811 -81.27298 26094 ft 462 kts 198°
2026-05-06 18:45 30.60578 -81.27833 26099 ft 478 kts 189°
2026-05-06 18:45 30.57197 -81.27733 26097 ft 496 kts 179°
2026-05-06 18:45 30.53798 -81.27268 26096 ft 500 kts 179°
2026-05-06 18:45 30.51461 -81.26950 26096 ft 501 kts 179°
2026-05-06 18:46 30.46824 -81.26330 26098 ft 501 kts 179°
2026-05-06 18:46 30.43359 -81.25876 26098 ft 501 kts 179°
2026-05-06 18:46 30.39891 -81.25427 26097 ft 501 kts 179°
2026-05-06 18:46 30.36429 -81.24980 26098 ft 501 kts 179°
2026-05-06 18:47 30.32959 -81.24530 26097 ft 501 kts 179°
2026-05-06 18:47 30.29494 -81.24081 26096 ft 501 kts 179°
2026-05-06 18:47 30.26074 -81.23636 26092 ft 501 kts 179°
2026-05-06 18:47 30.22615 -81.23182 26090 ft 501 kts 179°
2026-05-06 18:48 30.19150 -81.22729 26089 ft 501 kts 179°
2026-05-06 18:48 30.15690 -81.22277 26088 ft 500 kts 179°
2026-05-06 18:48 30.12230 -81.21826 26087 ft 500 kts 179°
2026-05-06 18:48 30.08772 -81.21377 26072 ft 500 kts 179°
2026-05-06 18:49 30.05314 -81.20928 26076 ft 500 kts 179°
2026-05-06 18:49 30.01855 -81.20479 26079 ft 500 kts 179°
2026-05-06 18:49 29.98398 -81.20031 26083 ft 500 kts 179°
2026-05-06 18:49 29.94941 -81.19583 26081 ft 500 kts 179°
2026-05-06 18:50 29.91481 -81.19134 26083 ft 500 kts 179°
2026-05-06 18:50 29.88026 -81.18684 26084 ft 500 kts 179°
2026-05-06 18:50 29.84560 -81.18236 25915 ft 502 kts 179°
2026-05-06 18:50 29.81089 -81.17788 25645 ft 502 kts 179°
2026-05-06 18:51 29.77615 -81.17344 25403 ft 503 kts 179°
2026-05-06 18:51 29.74137 -81.16898 24829 ft 503 kts 178°
2026-05-06 18:51 29.70658 -81.16450 24244 ft 504 kts 178°
2026-05-06 18:51 29.67174 -81.16000 23662 ft 504 kts 178°
2026-05-06 18:52 29.63690 -81.15549 23042 ft 503 kts 178°
2026-05-06 18:52 29.60225 -81.15098 22491 ft 500 kts 178°
2026-05-06 18:52 29.56782 -81.14650 21935 ft 496 kts 178°
2026-05-06 18:52 29.53363 -81.14203 21378 ft 492 kts 178°
2026-05-06 18:53 29.51113 -81.13912 21016 ft 490 kts 177°
2026-05-06 18:53 29.47737 -81.13480 20449 ft 487 kts 177°
2026-05-06 18:53 29.44385 -81.13053 19883 ft 483 kts 177°
2026-05-06 18:53 29.41057 -81.12627 19289 ft 479 kts 177°
2026-05-06 18:54 29.37759 -81.12206 18686 ft 475 kts 177°
2026-05-06 18:54 29.34491 -81.11788 18055 ft 471 kts 176°
2026-05-06 18:54 29.31251 -81.11374 17484 ft 467 kts 176°
2026-05-06 18:54 29.28034 -81.10990 16818 ft 461 kts 177°
2026-05-06 18:55 29.24857 -81.10693 16273 ft 456 kts 178°
2026-05-06 18:55 29.21705 -81.10455 15722 ft 452 kts 179°
2026-05-06 18:55 29.18577 -81.10247 15168 ft 448 kts 179°
2026-05-06 18:55 29.15481 -81.10045 14612 ft 444 kts 178°
2026-05-06 18:56 29.12411 -81.09832 14057 ft 440 kts 178°
2026-05-06 18:56 29.09369 -81.09604 13465 ft 436 kts 177°
2026-05-06 18:56 29.06364 -81.09366 12918 ft 431 kts 177°
2026-05-06 18:56 29.03384 -81.09125 12378 ft 427 kts 177°
2026-05-06 18:57 29.00436 -81.08936 12029 ft 423 kts 181°
2026-05-06 18:57 28.97545 -81.09375 11262 ft 412 kts 196°
2026-05-06 18:57 28.94897 -81.10215 10798 ft 379 kts 197°
2026-05-06 18:57 28.92461 -81.10984 10493 ft 348 kts 196°
2026-05-06 18:58 28.90224 -81.11685 10287 ft 320 kts 196°
2026-05-06 18:58 28.88120 -81.12341 9767 ft 307 kts 196°
2026-05-06 18:58 28.86091 -81.12974 9140 ft 299 kts 196°
2026-05-06 18:58 28.84104 -81.13593 8433 ft 295 kts 196°
2026-05-06 18:59 28.82129 -81.14207 7685 ft 294 kts 195°
2026-05-06 18:59 28.80167 -81.14817 7260 ft 290 kts 195°
2026-05-06 18:59 28.78237 -81.15434 7081 ft 288 kts 200°
2026-05-06 18:59 28.76496 -81.16507 6759 ft 284 kts 220°
2026-05-06 19:00 28.75023 -81.17999 6424 ft 283 kts 223°
2026-05-06 19:00 28.73563 -81.19487 6090 ft 281 kts 222°
2026-05-06 19:00 28.72109 -81.20961 5772 ft 278 kts 221°
2026-05-06 19:00 28.70669 -81.22416 5463 ft 276 kts 221°
2026-05-06 19:01 28.69246 -81.23851 5052 ft 272 kts 220°
2026-05-06 19:01 28.67840 -81.25269 4578 ft 268 kts 220°
2026-05-06 19:01 28.66450 -81.26669 4123 ft 266 kts 220°
2026-05-06 19:01 28.65025 -81.27903 3945 ft 250 kts 205°
2026-05-06 19:02 28.63406 -81.28435 3671 ft 237 kts 182°
2026-05-06 19:02 28.61800 -81.28436 3401 ft 228 kts 179°
2026-05-06 19:02 28.60223 -81.28420 3095 ft 224 kts 179°
2026-05-06 19:02 28.58676 -81.28404 2805 ft 220 kts 179°
2026-05-06 19:03 28.57167 -81.28389 2521 ft 215 kts 179°
2026-05-06 19:03 28.55699 -81.28374 2274 ft 203 kts 179°
2026-05-06 19:03 28.54343 -81.28360 2009 ft 187 kts 179°
2026-05-06 19:03 28.53097 -81.28347 1785 ft 171 kts 179°
2026-05-06 19:04 28.51981 -81.28336 1572 ft 153 kts 179°
2026-05-06 19:04 28.50941 -81.28326 1379 ft 146 kts 179°
2026-05-06 19:04 28.49942 -81.28315 1186 ft 144 kts 179°
2026-05-06 19:04 28.48935 -81.28308 1007 ft 144 kts 180°
2026-05-06 19:05 28.47935 -81.28304 848 ft 144 kts 178°
2026-05-06 19:05 28.46928 -81.28300 648 ft 145 kts 177°
2026-05-06 19:05 28.45904 -81.28275 461 ft 147 kts 175°
2026-05-06 19:05 28.44876 -81.28261 243 ft 149 kts 176°
2026-05-06 19:06 28.43851 -81.28253 104 ft 140 kts 176°
2026-05-06 19:06 28.43008 -81.28243 97 ft 98 kts 179°
2026-05-06 19:06 28.42620 -81.28254 99 ft 31 kts 197°
2026-05-06 19:06 28.42515 -81.28379 97 ft 23 kts 250°
2026-05-06 19:07 28.42460 -81.28553 98 ft 23 kts 250°
2026-05-06 19:07 28.42408 -81.28723 101 ft 23 kts 250°
2026-05-06 19:07 28.42361 -81.28874 105 ft 20 kts 250°
2026-05-06 19:07 28.42311 -81.29033 97 ft 25 kts 250°
2026-05-06 19:08 28.42286 -81.29234 94 ft 26 kts 272°
2026-05-06 19:08 28.42283 -81.29428 95 ft 19 kts 270°
2026-05-06 19:08 28.42282 -81.29587 94 ft 21 kts 269°
2026-05-06 19:08 28.42280 -81.29753 95 ft 21 kts 269°
2026-05-06 19:09 28.42280 -81.29927 95 ft 22 kts 269°
2026-05-06 19:09 28.42277 -81.30107 94 ft 23 kts 269°
2026-05-06 19:09 28.42275 -81.30295 94 ft 24 kts 270°
2026-05-06 19:09 28.42266 -81.30486 94 ft 25 kts 265°
2026-05-06 19:10 28.42254 -81.30669 98 ft 25 kts 265°
2026-05-06 19:10 28.42239 -81.30870 94 ft 26 kts 265°
2026-05-06 19:10 28.42242 -81.31079 94 ft 27 kts 280°
2026-05-06 19:10 28.42268 -81.31288 94 ft 27 kts 272°
2026-05-06 19:11 28.42266 -81.31506 96 ft 27 kts 270°
2026-05-06 19:11 28.42265 -81.31720 99 ft 26 kts 270°
2026-05-06 19:11 28.42300 -81.31833 102 ft 9 kts 352°
2026-05-06 19:11 28.42367 -81.31832 100 ft 13 kts 356°
2026-05-06 19:12 28.42491 -81.31834 101 ft 22 kts 359°
2026-05-06 19:12 28.42653 -81.31835 102 ft 24 kts
2026-05-06 19:12 28.42824 -81.31837 100 ft 26 kts 359°
2026-05-06 19:12 28.43007 -81.31839 98 ft 27 kts 358°
2026-05-06 19:13 28.43184 -81.31841 98 ft 16 kts
2026-05-06 19:13 28.43262 -81.31764 101 ft 16 kts 58°
2026-05-06 19:13 28.43277 -81.31637 95 ft 13 kts 103°
2026-05-06 19:13 28.43263 -81.31562 97 ft 8 kts 96°
2026-05-06 19:14 28.43275 -81.31516 95 ft 5 kts 62°
2026-05-06 19:14 28.43300 -81.31477 96 ft 7 kts 52°
2026-05-06 19:14 28.43341 -81.31467 96 ft 6 kts 336°
2026-05-06 19:14 28.43366 -81.31487 96 ft 3 kts 326°
2026-05-06 19:15 28.43370 -81.31491 96 ft 0 kts 326°